Weather History for EGMH - November, 2013

Change the Weather History Date:

Saturday, November 30, 2013

  Actual Average Record
Temperature  
Mean Temperature 43 °F -  
Max Temperature 45 °F - - ()
Min Temperature 41 °F - - ()
Degree Days  
Heating Degree Days 22    
Moisture  
Dew Point 41 °F    
Average Humidity 90    
Maximum Humidity 100    
Minimum Humidity 69    
Precipitation  
Precipitation 0.00 in - - ()
Sea Level Pressure  
Sea Level Pressure 30.28 in    
Wind  
Wind Speed 16 mph ()    
Max Wind Speed 22 mph    
Max Gust Speed -    
Visibility 7.2 miles    
Events      
T = Trace of Precipitation, MM = Missing Value Source: Averaged Metar Reports

Daily Weather History Graph

Daily Weather History Graph

Search for Another Location

Airport or City:

Trip Planner

Search our weather history database for the weather conditions in past years. The results will help you decide how hot, cold, wet, or windy it might be!

Date:

Astronomy

Nov. 30, 2013 Rise Set
Actual Time 7:35 AM GMT 3:50 PM GMT
Civil Twilight 6:57 AM GMT 4:29 PM GMT
Nautical Twilight 6:15 AM GMT 5:11 PM GMT
Astronomical Twilight 5:35 AM GMT 5:51 PM GMT
Moon 4:12 AM GMT (11/30) 2:19 PM GMT (11/30)
Length of Visible Light 9h 32m
Length of Day
8h 14m
Waning Crescent, 8% of the Moon is Illuminated
Nov 30
Waning Crescent
Dec 3
New
Dec 9
First Quarter
Dec 17
Full
Dec 25
Last Quarter

Hourly Weather History & Observations

Time (GMT) Temp. Windchill Dew Point Humidity Pressure Visibility Wind Dir Wind Speed Gust Speed Precip Events Conditions
12:00 AM 43 °F - 38 °F 75% 30.12 in 11 mi NW 18.4 mph - -   Scattered Clouds
12:20 AM 42.8 °F 33.8 °F 37.4 °F 81% 30.12 in - NW 21.9 mph - N/A   Clear
12:50 AM 42.8 °F 33.8 °F 37.4 °F 81% 30.09 in - NW 21.9 mph - N/A   Clear
3:00 AM 43 °F - 36 °F 69% 30.13 in 18 mi NW 17.3 mph - -   Partly Cloudy
5:50 AM 41.0 °F 31.4 °F 37.4 °F 87% 30.15 in 6.2 mi NNW 21.9 mph - N/A   Mostly Cloudy
6:00 AM 42 °F - 38 °F 81% 30.17 in 14 mi NNW 20.7 mph - -  
6:20 AM 41.0 °F 31.6 °F 37.4 °F 87% 30.15 in 6.2 mi NNW 20.7 mph - N/A   Scattered Clouds
6:50 AM 41.0 °F 32.2 °F 37.4 °F 87% 30.18 in 6.2 mi NNW 18.4 mph - N/A   Mostly Cloudy
7:20 AM 41.0 °F 32.8 °F 39.2 °F 93% 30.18 in 6.2 mi NNW 16.1 mph - N/A   Mostly Cloudy
7:50 AM 42.8 °F 34.5 °F 39.2 °F 87% 30.21 in 6.2 mi NNW 18.4 mph - N/A   Scattered Clouds
8:20 AM 42.8 °F 34.3 °F 39.2 °F 87% 30.21 in 6.2 mi NW 19.6 mph - N/A   Scattered Clouds
8:50 AM 42.8 °F 34.5 °F 39.2 °F 87% 30.24 in 6.2 mi NW 18.4 mph - N/A   Mostly Cloudy
9:00 AM 42 °F - 40 °F 92% 30.26 in 9 mi NW 17.3 mph - -   Mostly Cloudy
9:20 AM 42.8 °F 34.0 °F 41.0 °F 93% 30.24 in 6.2 mi NNW 20.7 mph - N/A   Scattered Clouds
9:50 AM 42.8 °F 34.8 °F 41.0 °F 93% 30.24 in 5.6 mi NNW 17.3 mph - N/A   Partly Cloudy
10:20 AM 44.6 °F 37.2 °F 41.0 °F 87% 30.27 in 5.6 mi NW 17.3 mph - N/A   Scattered Clouds
10:50 AM 44.6 °F 37.2 °F 41.0 °F 87% 30.27 in 5.6 mi NNW 17.3 mph - N/A   Partly Cloudy
11:20 AM 44.6 °F 36.9 °F 42.8 °F 93% 30.27 in 6.2 mi NNW 18.4 mph - N/A   Partly Cloudy
11:50 AM 44.6 °F 36.9 °F 42.8 °F 93% 30.27 in 6.2 mi NNW 18.4 mph - N/A   Mostly Cloudy
12:00 PM 44 °F - 43 °F 94% 30.30 in 11 mi NNW 16.1 mph - -   Mostly Cloudy
12:20 PM 44.6 °F 37.2 °F 42.8 °F 93% 30.30 in 6.2 mi NW 17.3 mph - N/A   Mostly Cloudy
12:50 PM 44.6 °F 37.2 °F 42.8 °F 93% 30.30 in 6.2 mi NW 17.3 mph - N/A   Partly Cloudy
1:20 PM 44.6 °F 37.4 °F 42.8 °F 93% 30.30 in 6.2 mi NW 16.1 mph - N/A   Partly Cloudy
1:50 PM 42.8 °F 35.4 °F 41.0 °F 93% 30.30 in 6.2 mi NW 15.0 mph - N/A   Partly Cloudy
2:20 PM 44.6 °F 37.8 °F 42.8 °F 93% 30.33 in 6.2 mi NNW 15.0 mph - N/A   Partly Cloudy
2:50 PM 44.6 °F 37.8 °F 42.8 °F 93% 30.33 in 6.2 mi NNW 15.0 mph - N/A   Scattered Clouds
3:00 PM 45 °F - 43 °F 91% 30.34 in 13 mi NNW 13.8 mph - -   Scattered Clouds
3:20 PM 44.6 °F 37.4 °F 42.8 °F 93% 30.33 in 6.2 mi NNW 16.1 mph - N/A   Scattered Clouds
3:50 PM 44.6 °F 38.1 °F 44.6 °F 100% 30.36 in 6.2 mi NNW 13.8 mph - N/A   Mostly Cloudy
4:20 PM 44.6 °F 38.4 °F 42.8 °F 93% 30.36 in 6.2 mi NNW 12.7 mph - N/A   Mostly Cloudy
4:50 PM 44.6 °F 38.4 °F 42.8 °F 93% 30.36 in 6.2 mi NNW 12.7 mph - N/A   Scattered Clouds
5:20 PM 44.6 °F 38.8 °F 42.8 °F 93% 30.36 in 6.2 mi NNW 11.5 mph - N/A   Mostly Cloudy
5:50 PM 44.6 °F 38.4 °F 42.8 °F 93% 30.36 in 6.2 mi NNW 12.7 mph - N/A   Mostly Cloudy
6:00 PM 44 °F - 43 °F 94% 30.39 in 7 mi NNW 11.5 mph - -   Partly Cloudy
6:20 PM 44.6 °F 38.1 °F 42.8 °F 93% 30.39 in 6.2 mi NNW 13.8 mph - N/A   Mostly Cloudy
6:50 PM 44.6 °F 37.4 °F 41.0 °F 87% 30.42 in 6.2 mi NNW 16.1 mph - N/A   Mostly Cloudy
7:20 PM 44.6 °F 38.1 °F 41.0 °F 87% 30.42 in 6.2 mi NNW 13.8 mph - N/A   Mostly Cloudy
7:50 PM 44.6 °F 37.8 °F 42.8 °F 93% 30.42 in 6.2 mi NNW 15.0 mph - N/A   Mostly Cloudy
8:20 PM 44.6 °F 38.8 °F 42.8 °F 93% 30.42 in 6.2 mi North 11.5 mph - N/A   Mostly Cloudy
9:00 PM 43 °F - 41 °F 91% 30.43 in 7 mi NNW 6.9 mph - -   Partly Cloudy